• Contacto:

    Directo: 4535-5707
    poleposition@arnet.com.ar

  • Buscar Noticias

Josito Di Palma marca tendencia en el ensayo inicial

torinojosi9393

Sin incidencias mayores, finalizó a pleno sol y con una temperatura agradable la 1ra tanda de entrenamientos  del Turismo Carretera,  y Josito Di Palma  a bordo del Torino alistado por el equipo Maquin Parts continúa por la buena senda y se ha quedado con el mejor registro.
El arrecifeño marcó un tiempo de 1m 35s 778/1000 para quedarse con el uno, dejando segundo a Esteban Guerrieri de gran trabajo con la Dodge, quedando a sólo 0.053/1000. En tanto que tercero posicionando al mejor Ford fue Diego Aventin quedando a 102/1000.
Las Dodge de Juan Marcos Angelini y Ricardo Risatti se ubicaron entre los mejores cinco, mientras el “top ten”  lo completaron Adrian Oubiña de gran trabajo con el Ford, el último ganador en Posadas Norberto Fontana, Matias Rossi siendo el mejor Chevrolet, Mariano Altuna y José Maria López.
A partir de las 15.00hs se pondrá en marcha la primera clasificación que mostrará los parámetros iniciales del fin de semana misionero.

1er. Entrenamiento TC – Posadas

1° 37 Di Palma, Luís José (H) 12 01:35.778
2° 101 Guerrieri, Esteban 14 01:35.831 0.053
3° 14 Aventin, Diego 11 01:35.880 0.102
4° 17 Angelini, Juan Marcos 11 01:35.925 0.147
5° 85 Risatti, Ricardo 13 01:35.993 0.215
6° 33 Oubiña, Adrián 15 01:36.076 0.298
7° 9 Fontana, Norberto 13 01:36.174 0.396
8° 2 Rossi, Matías 12 01:36.224 0.446
9° 20 Altuna, Mariano 15 01:36.224 0.446
10° 23 López, José María 14 01:36.233 0.455
11° 30 Juan, Maximiliano 14 01:36.342 0.564
12° 4 Ledesma, Christian 9 01:36.378 0.600
13° 1 Giallombardo, Mauro 12 01:36.386 0.608
14° 3 Ortelli, Guillermo 11 01:36.473 0.695
15° 6 De Benedictis, Juan Bautista 10 01:36.547 0.769
16° 15 Werner, Mariano 8 01:36.602 0.824
17° 18 Moriatis, Emanuel 10 01:36.693 0.915
18° 28 Ugalde, Lionel 11 01:36.728 0.950
19° 26 Trucco, Juan Martín 14 01:36.758 0.980
20° 5 Ponce de León, Gabriel 7 01:36.766 0.988
21° 111 Silva, Juan Manuel 11 01:36.779 1.001
22° 31 Okulovich, Carlos 13 01:36.926 1.148
23° 13 Alaux, Sergio 9 01:36.928 1.150
24° 7 Girolami, Néstor 10 01:36.951 1.173
25° 21 Gianini, Juan Pablo 9 01:37.007 1.229
26° 29 Basso, Martín 13 01:37.036 1.258
27° 35 Sotro, Leonel 11 01:37.067 1.289
28° 83 Ardusso, Facundo 13 01:37.070 1.292
29° 22 Martínez, Omar 10 01:37.219 1.441
30° 8 Canapino, Agustín 12 01:37.277 1.499
31° 71 Smith, Brian 13 01:37.324 1.546
32° 45 De Carlo, Diego 12 01:37.419 1.641
33° 24 Pernía, Leonel 11 01:37.678 1.900
34° 182 Kohler, Claudio 8 01:37.737 1.959
35° 19 Bonelli, Próspero 11 01:37.771 1.993
36° 40 Campanera, Laureano 13 01:37.963 2.185
37° 12 Spataro, Emiliano 6 01:37.980 2.202
38° 61 Ventricelli , Luciano 11 01:38.195 2.417
39° 41 Mazzacane, Gastón 11 01:38.204 2.426
40° 27 Jalaf, Matías 9 01:38.631 2.853
41° 36 Nolesi, Mathias 7 01:39.536 3.758
42° 39 Verna, Rafael 12 01:40.130 4.352
43° 10 Castellano, Jonatan 8 01:44.622 8.844
44° 11 Ponte, Martín 1 10:22.496 8:46.718

Responder

Introduce tus datos o haz clic en un icono para iniciar sesión:

Logo de WordPress.com

Estás comentando usando tu cuenta de WordPress.com. Cerrar sesión / Cambiar )

Imagen de Twitter

Estás comentando usando tu cuenta de Twitter. Cerrar sesión / Cambiar )

Foto de Facebook

Estás comentando usando tu cuenta de Facebook. Cerrar sesión / Cambiar )

Google+ photo

Estás comentando usando tu cuenta de Google+. Cerrar sesión / Cambiar )

Conectando a %s

A %d blogueros les gusta esto: